Simultaneous Nadir Overpasses (SNOs) Predictions

Prediction of SNOs between GOES-16 and AQUA Satellite Orbit:

Table of predicted SNOs for the next 14.0 days since TLE Epoch: 2/12/2022
Index Date Time (GOES-16) GOES-16 Lat,Lon AQUA Lat,Lon Distance(km) Time Diff (sec)
1 02/12/2022 06:29:58 -0.07, -75.19 -0.35, -73.72 166.76 80
2 02/12/2022 18:51:22 0.07, -75.19 -0.70, -78.91 422.90 80
3 02/14/2022 18:39:07 0.06, -75.19 -0.09, -75.93 84.23 80
4 02/16/2022 18:29:32 0.06, -75.20 0.53, -72.95 255.11 80
5 02/17/2022 06:50:47 -0.05, -75.20 0.56, -78.11 330.17 80
6 02/19/2022 06:35:52 -0.05, -75.22 -0.09, -75.13 10.12 80
7 02/21/2022 06:23:36 -0.05, -75.23 -0.68, -72.14 350.68 80
8 02/21/2022 18:44:59 0.05, -75.24 -0.41, -77.33 238.56 80
9 02/23/2022 18:35:24 0.05, -75.26 0.26, -74.36 102.55 80
10 02/24/2022 06:56:37 -0.04, -75.27 0.87, -79.50 481.99 80
11 02/25/2022 18:23:08 0.04, -75.28 0.89, -71.38 443.85 80
